Wind_Speed
5 4 2 2 3 4 4 5 7 8 11 13 14 13 12 11 11 12 12 11 10 9 11 13 15 14 12 10 9 8 10 11 10 9 7 7 7 6 6 8 9 8 7
6 5 4 4 4 5 5 5 5 7 9 10 11 11 10 10 10 11 10 10 9 8 9 12 15 16 13 10 9 7 7 8 10 9 7 4 4 5 5 4 5 5 5
6 6 6 5 5 6 6 6 6 6 7 7 8 8 9 10 10 10 10 9 8 7 9 13 17 17 14 11 9 7 5 5 6 8 9 6 4 4 4 4 3 1 2
7 8 7 7 7 8 8 8 7 6 5 4 5 6 7 9 9 9 9 8 8 7 9 15 17 15 13 11 10 6 4 4 4 6 8 7 6 5 4 4 4 4 2
8 9 9 9 9 9 10 9 8 7 5 4 4 5 6 7 8 8 9 8 8 8 10 16 16 13 12 12 11 9 6 6 6 6 6 6 6 7 5 6 5 4 4
8 10 10 10 10 10 10 10 10 9 8 8 9 10 10 10 10 10 10 9 9 10 13 16 15 13 12 12 13 12 10 8 8 8 9 8 7 7 6 7 7 6 5
8 9 10 11 11 11 12 12 12 13 13 14 16 17 17 16 15 15 13 11 11 12 14 15 14 14 14 14 14 14 12 11 9 9 10 10 9 9 8 7 7 8 7
10 10 11 12 13 13 14 15 16 17 19 20 22 23 23 22 20 19 18 15 15 17 17 17 17 16 17 18 17 17 16 15 12 9 9 11 11 11 11 9 8 8 9
14 15 16 17 18 18 19 20 20 22 23 25 27 27 26 25 24 22 21 20 20 21 21 20 21 21 22 23 22 21 21 21 18 14 12 13 13 12 13 12 9 8 9
21 21 21 22 23 24 24 24 24 24 26 27 28 28 27 26 25 24 23 23 24 24 24 24 24 25 26 26 27 26 26 26 24 20 17 17 17 14 12 11 11 9 8
25 27 28 28 28 28 27 27 26 26 26 27 27 27 26 26 25 24 24 25 26 26 27 28 29 29 30 30 30 29 29 29 28 26 22 21 21 20 15 13 13 11 9
30 31 33 31 29 28 28 28 27 28 27 27 26 27 27 27 25 24 23 24 26 27 28 30 31 32 32 32 31 30 30 30 29 28 27 26 26 24 21 18 17 16 12
33 34 35 34 31 29 29 28 27 28 27 25 25 25 26 27 25 24 23 24 26 26 26 27 27 29 29 30 29 28 28 29 28 27 28 28 29 29 26 23 22 21 18
34 35 35 36 34 31 30 29 28 26 25 23 23 23 24 25 24 23 22 23 23 22 20 19 19 21 22 23 25 25 25 24 23 24 26 27 28 30 30 29 27 25 22
34 34 33 33 33 32 30 29 28 26 25 24 24 24 23 24 24 24 24 23 22 20 18 18 18 20 22 23 24 25 25 24 21 22 25 25 25 26 29 31 31 30 27
40 37 33 31 32 33 32 31 29 27 25 25 25 24 24 24 24 23 22 21 21 21 20 19 20 21 22 23 24 25 26 25 24 25 25 25 25 25 26 29 31 32 30
43 38 35 34 36 37 35 32 29 27 27 25 23 22 24 25 25 24 23 23 22 21 20 20 20 21 21 22 23 24 24 25 25 24 24 25 25 25 25 26 28 28 29
51 34 31 34 35 35 34 32 30 28 25 22 22 22 23 24 24 23 22 22 22 21 21 21 20 20 20 20 19 19 20 21 23 23 24 25 26 25 25 25 27 28 30
51 45 41 33 28 27 25 24 24 23 22 23 24 23 21 20 19 18 18 19 21 22 22 21 20 19 18 17 16 16 18 20 21 21 21 22 23 24 25 26 27 28 31
51 48 44 40 30 20 16 16 19 23 23 24 25 24 22 20 18 16 15 16 18 19 19 19 18 18 17 16 16 16 17 17 17 18 19 19 19 21 24 26 27 28 30
46 47 46 38 32 26 20 19 21 22 23 23 23 24 25 24 21 18 16 15 16 17 17 17 17 17 17 18 17 16 15 14 13 14 16 18 20 20 23 26 27 28 28
45 42 37 31 28 26 21 20 21 20 20 21 21 22 23 24 22 20 19 18 17 17 17 17 17 18 19 19 18 17 16 15 13 13 14 16 18 21 23 25 27 28 27
41 38 33 28 25 24 22 20 19 19 18 19 18 18 18 20 21 20 19 19 19 19 20 21 20 20 20 20 19 19 18 18 17 15 14 15 15 18 21 24 26 28 28
38 36 33 30 27 25 24 21 21 21 17 17 19 20 18 18 19 20 20 20 20 21 21 22 22 22 22 22 23 22 20 20 20 20 17 15 16 18 19 21 24 27 28
39 38 35 33 31 30 29 28 27 25 24 24 24 25 24 21 20 20 21 22 23 23 23 23 24 24 23 24 25 25 23 21 20 21 21 19 16 18 20 21 23 26 27
42 41 41 40 39 39 38 37 34 32 32 32 30 30 29 27 25 23 22 23 24 26 27 27 27 27 26 25 26 25 24 23 22 21 22 21 19 18 19 22 24 26 26
Wind_Direction
231 234 257 283 298 310 333 360 11 6 357 355 1 8 11 12 15 21 24 25 20 14 15 15 10 3 359 5 14 30 39 34 27 27 36 47 53 56 65 78 85 97 115
247 251 257 268 277 284 297 322 347 352 348 349 355 3 7 8 9 12 16 18 19 14 5 357 351 349 344 345 358 12 27 32 30 24 17 30 52 56 56 68 81 98 108
258 255 254 258 266 273 282 299 320 330 335 343 353 1 4 3 1 1 1 4 6 7 357 346 341 341 341 339 345 357 7 19 22 19 12 6 29 37 40 44 46 29 144
270 266 265 268 268 271 277 291 303 305 311 330 349 357 355 355 353 346 341 341 343 345 342 341 339 342 344 345 346 344 343 342 354 358 7 16 8 4 10 6 16 16 324
266 267 268 268 266 268 277 285 287 281 274 283 307 322 327 331 334 328 321 318 317 317 321 334 344 349 348 353 356 357 347 336 331 327 333 348 355 355 355 347 330 332 342
274 272 272 270 267 264 267 271 270 268 268 276 289 298 305 308 308 307 305 301 296 296 305 322 336 343 348 349 349 353 355 348 342 326 314 315 321 327 337 342 338 317 301
281 281 277 273 269 265 262 261 263 268 275 282 289 294 298 299 298 296 294 286 278 279 288 302 315 319 323 327 328 329 332 332 339 336 312 296 293 299 302 306 318 332 313
283 277 273 270 269 268 268 269 272 277 283 287 289 291 293 294 292 288 288 284 274 271 277 284 290 295 298 303 307 308 308 308 313 318 313 297 280 273 276 275 287 307 318
285 282 283 284 284 283 281 281 282 285 286 286 287 288 288 287 285 281 280 279 274 272 274 276 277 281 285 289 292 293 292 293 295 294 288 287 285 272 265 265 271 283 287
290 288 286 286 287 288 288 289 290 290 290 289 287 285 283 282 280 277 276 274 273 272 273 275 274 273 277 281 284 286 285 286 287 285 280 275 277 275 265 263 265 264 264
303 301 295 288 285 287 290 292 295 296 297 296 295 292 288 285 282 281 279 276 275 275 276 277 277 275 274 275 278 280 280 282 284 282 278 272 270 269 263 259 261 256 250
306 305 301 295 292 291 292 294 298 300 302 303 300 294 290 288 286 283 279 276 275 274 274 275 277 278 276 273 273 275 276 279 280 279 276 271 266 262 255 251 254 255 252
302 302 300 296 293 292 291 295 300 303 306 308 304 295 287 283 282 281 278 276 276 275 274 275 277 281 281 279 274 272 275 278 277 276 274 272 266 260 254 250 250 254 256
298 296 295 294 294 292 290 293 298 302 301 299 298 292 284 280 281 283 278 275 276 280 279 275 274 276 278 279 275 270 271 276 274 272 271 271 269 264 256 250 249 252 255
284 278 279 283 285 283 280 282 286 290 291 290 293 291 284 282 284 287 281 277 274 273 273 274 274 272 271 272 272 272 273 274 273 270 268 269 270 268 257 249 247 249 252
276 255 248 250 256 259 261 267 275 281 284 289 293 289 286 286 285 282 278 275 269 266 270 275 273 269 266 266 268 270 272 272 271 266 266 267 268 268 260 251 246 247 250
289 257 242 240 239 243 248 257 265 268 274 282 286 285 284 284 283 280 275 272 268 264 268 269 265 266 266 265 267 269 271 273 273 269 266 265 263 263 260 251 244 244 247
302 287 268 260 243 239 244 250 256 264 275 287 292 289 283 282 281 279 273 270 267 262 262 260 257 261 264 266 266 265 268 272 274 273 268 264 262 261 260 255 247 244 245
308 310 310 290 265 256 253 255 263 273 284 293 294 289 285 285 286 282 274 271 265 258 255 253 253 253 256 256 256 261 268 273 276 276 273 270 267 265 264 261 258 253 249
308 311 313 305 298 290 294 299 292 289 287 288 287 287 288 287 286 281 277 271 263 258 254 249 248 250 249 247 249 258 267 273 277 281 284 284 282 273 265 261 258 255 251
307 311 312 307 310 316 321 324 320 300 286 282 284 287 286 281 278 274 269 265 262 258 251 245 248 250 248 245 248 255 263 270 282 291 292 286 281 276 269 262 258 255 252
309 311 311 312 314 321 324 324 325 314 297 289 289 287 281 273 268 266 266 261 258 253 248 245 248 250 250 246 247 252 260 270 282 294 300 293 281 272 268 265 261 257 251
305 308 312 317 322 323 322 321 321 320 302 288 288 289 280 268 260 258 258 257 253 248 244 244 246 248 250 246 246 256 263 275 282 290 299 301 293 280 271 267 264 261 255
301 306 311 314 316 314 313 313 313 315 303 288 289 290 287 274 264 258 255 252 250 248 245 245 247 249 250 254 258 261 266 269 275 284 289 295 295 289 283 274 268 264 259
302 305 308 309 310 309 306 303 302 299 294 289 288 284 281 278 268 259 252 247 246 246 245 246 248 249 252 262 268 267 268 269 270 279 288 291 290 287 287 283 276 269 263
305 306 307 306 305 305 303 300 295 290 285 283 281 279 273 270 269 266 259 251 245 245 246 247 250 252 255 264 270 271 271 274 277 279 283 287 290 287 282 281 277 271 266
Height
5921 5919 5919 5918 5918 5918 5917 5916 5915 5915 5915 5914 5914 5913 5912 5912 5911 5910 5909 5908 5907 5906 5904 5903 5901 5900 5898 5897 5896 5895 5894 5894 5893 5892 5891 5891 5891 5891 5890 5889 5889 5889 5889
5920 5919 5918 5917 5917 5917 5917 5916 5915 5915 5914 5914 5913 5912 5911 5911 5910 5910 5909 5908 5907 5906 5904 5902 5901 5899 5897 5896 5895 5895 5894 5893 5893 5893 5892 5891 5891 5891 5891 5891 5890 5890 5890
5919 5918 5917 5915 5915 5915 5915 5914 5914 5913 5913 5913 5912 5911 5911 5910 5909 5908 5908 5907 5906 5905 5904 5902 5900 5898 5896 5895 5894 5894 5893 5892 5892 5892 5892 5891 5891 5891 5891 5891 5891 5891 5890
5918 5917 5916 5915 5914 5913 5913 5913 5912 5911 5911 5911 5910 5910 5909 5909 5908 5907 5907 5906 5905 5904 5903 5902 5899 5897 5895 5894 5893 5893 5893 5892 5891 5891 5891 5890 5891 5890 5890 5891 5891 5891 5891
5916 5915 5914 5913 5912 5912 5911 5910 5909 5909 5908 5907 5907 5907 5906 5906 5905 5905 5905 5904 5904 5904 5902 5901 5899 5897 5895 5893 5892 5892 5892 5892 5892 5890 5890 5890 5890 5890 5890 5890 5891 5891 5890
5914 5913 5912 5911 5911 5910 5909 5907 5906 5905 5905 5904 5903 5903 5903 5902 5902 5902 5902 5902 5902 5902 5900 5899 5897 5896 5894 5893 5892 5891 5891 5892 5891 5890 5889 5889 5889 5889 5889 5889 5890 5890 5890
5912 5911 5911 5910 5909 5907 5906 5905 5904 5903 5902 5901 5900 5900 5899 5899 5898 5898 5898 5898 5898 5898 5898 5896 5895 5894 5893 5892 5891 5890 5889 5890 5890 5890 5888 5887 5887 5887 5887 5888 5889 5889 5889
5911 5910 5909 5908 5907 5905 5904 5903 5902 5901 5900 5899 5897 5896 5895 5894 5893 5893 5893 5893 5893 5893 5893 5893 5892 5891 5890 5889 5888 5888 5887 5886 5887 5888 5887 5885 5885 5885 5886 5886 5887 5887 5888
5910 5909 5908 5907 5905 5904 5903 5901 5900 5898 5896 5895 5893 5892 5890 5888 5887 5887 5887 5887 5887 5887 5888 5888 5888 5887 5886 5885 5884 5884 5884 5883 5883 5883 5883 5882 5882 5883 5883 5883 5884 5884 5885
5909 5908 5907 5906 5904 5902 5900 5897 5895 5892 5890 5888 5887 5886 5884 5883 5881 5881 5881 5881 5881 5881 5882 5882 5882 5882 5882 5880 5879 5879 5878 5878 5878 5879 5879 5878 5878 5879 5880 5880 5880 5881 5882
5908 5906 5904 5902 5900 5897 5894 5891 5889 5887 5885 5883 5881 5881 5879 5877 5876 5876 5875 5875 5875 5875 5876 5876 5876 5876 5875 5874 5873 5873 5872 5871 5872 5872 5873 5873 5873 5874 5875 5876 5877 5878 5879
5905 5904 5901 5898 5895 5892 5889 5886 5884 5881 5880 5878 5876 5874 5873 5871 5871 5870 5869 5868 5867 5868 5869 5869 5869 5868 5866 5866 5866 5866 5866 5865 5865 5865 5865 5866 5867 5868 5869 5871 5872 5874 5874
5900 5898 5896 5893 5890 5887 5884 5881 5878 5875 5874 5872 5870 5868 5867 5865 5864 5863 5862 5861 5860 5861 5862 5863 5863 5861 5859 5858 5858 5859 5859 5859 5859 5859 5859 5859 5859 5860 5862 5864 5866 5868 5869
5893 5891 5889 5887 5885 5882 5878 5875 5872 5869 5868 5867 5865 5863 5861 5860 5858 5858 5857 5855 5853 5854 5856 5856 5856 5854 5853 5851 5851 5852 5853 5853 5853 5853 5853 5853 5853 5853 5855 5857 5858 5861 5863
5882 5879 5878 5877 5876 5873 5870 5867 5865 5863 5862 5861 5860 5858 5856 5854 5853 5854 5853 5851 5849 5849 5850 5850 5850 5850 5849 5847 5846 5846 5846 5846 5847 5847 5847 5847 5847 5847 5848 5849 5851 5854 5857
5868 5861 5860 5860 5860 5859 5859 5858 5858 5858 5857 5856 5855 5853 5850 5849 5848 5847 5846 5845 5845 5845 5846 5845 5845 5844 5843 5842 5841 5841 5841 5841 5842 5842 5842 5841 5841 5841 5841 5842 5844 5847 5850
5855 5846 5848 5847 5844 5844 5846 5849 5849 5850 5849 5849 5848 5846 5845 5843 5841 5841 5840 5840 5839 5839 5840 5840 5839 5839 5838 5838 5838 5837 5836 5836 5836 5836 5836 5836 5835 5835 5835 5836 5837 5840 5842
5851 5842 5843 5840 5833 5832 5836 5838 5839 5840 5840 5840 5840 5839 5837 5836 5835 5833 5832 5832 5832 5832 5833 5833 5833 5832 5832 5832 5832 5832 5831 5831 5831 5830 5830 5829 5829 5830 5830 5830 5831 5833 5835
5848 5842 5842 5833 5827 5827 5828 5831 5833 5832 5831 5831 5831 5830 5829 5828 5827 5827 5826 5825 5825 5826 5826 5827 5827 5826 5826 5827 5827 5827 5827 5826 5825 5824 5823 5822 5822 5824 5825 5825 5825 5827 5829
5846 5842 5839 5834 5826 5822 5824 5825 5825 5825 5824 5824 5823 5822 5821 5821 5820 5819 5819 5819 5819 5820 5820 5820 5821 5821 5821 5822 5822 5823 5822 5822 5820 5819 5817 5816 5816 5817 5817 5818 5819 5820 5821
5841 5837 5834 5827 5821 5818 5820 5819 5819 5819 5819 5818 5816 5815 5814 5814 5813 5813 5813 5813 5813 5814 5814 5815 5816 5816 5817 5817 5818 5818 5817 5817 5816 5815 5813 5811 5810 5810 5810 5810 5811 5812 5814
5837 5833 5828 5822 5818 5815 5814 5814 5814 5813 5812 5810 5809 5808 5807 5807 5807 5807 5807 5807 5807 5807 5808 5809 5810 5811 5812 5813 5813 5813 5813 5812 5811 5810 5808 5806 5805 5804 5803 5803 5803 5804 5806
5832 5828 5823 5818 5814 5811 5810 5810 5809 5807 5806 5805 5804 5803 5802 5801 5801 5800 5800 5800 5800 5801 5803 5804 5804 5805 5806 5807 5808 5809 5808 5807 5806 5806 5804 5802 5800 5798 5798 5797 5796 5796 5798
5826 5822 5817 5813 5810 5807 5806 5804 5802 5801 5801 5801 5800 5799 5798 5796 5794 5793 5793 5794 5795 5796 5797 5799 5800 5800 5801 5801 5803 5803 5804 5803 5802 5800 5800 5797 5795 5793 5792 5792 5791 5790 5792
5818 5814 5810 5807 5803 5801 5798 5797 5795 5794 5794 5794 5794 5793 5791 5790 5788 5787 5787 5787 5788 5790 5791 5792 5794 5795 5795 5796 5797 5797 5797 5797 5797 5796 5793 5792 5790 5788 5786 5785 5784 5784 5785
5808 5804 5801 5797 5794 5792 5790 5788 5787 5786 5785 5784 5784 5784 5783 5782 5781 5780 5780 5780 5780 5782 5783 5785 5786 5788 5788 5789 5790 5791 5791 5790 5790 5790 5789 5786 5785 5783 5781 5780 5778 5777 5778